Powrót do katalogu

RTU MIREA 1

AktywnyKrótkofalarstwoSSO
NORAD 61785·PAYLOAD·🇷🇺 Russia

Wystrzelony Nov 4, 2024 z Vostochny Cosmodrome

Loading…

Następne Przeloty (najbliższe 24 godziny)

TLE

ŚwieżeSource: Space-Track

Epoka: Sep 14, 2026, 10:42 UTC

1 61785U 24199BC  26257.44642559  .00087030  00000-0  63036-3 0  9992
2 61785  97.2726 137.3716 0002503 316.9185  43.1883 15.73179765148442

Śledź RTU MIREA 1 w czasie rzeczywistym z AllMySat

Download on the App Store